Hourly Data Report for August 30, 2003

TORONTO CITY
ONTARIO

43°40'00.000" N
79°24'00.000" W
112.50 m
6158355
71508
XTO

Download Data

Hourly Data (August 2003)
Hourly Data Report for August 30, 2003
TIME
LST
Temp Definition
°C
Dew Point Definition
°C
Rel Hum Definition
%
Precip. Amount Definition
mm

Wind Dir Definition
10's deg

Wind Spd Definition
km/h
Visibility Definition
km
Stn Press Definition
kPa
Hmdx Definition


Wind Chill Definition


Weather Definition


00:00 16.8 11.5 71   LegendMM LegendMM LegendMM 100.35     LegendNANA
01:00 15.7 11.0 74   LegendMM LegendMM LegendMM 100.38     LegendNANA
02:00 15.1 11.1 77   LegendMM LegendMM LegendMM 100.43     LegendNANA
03:00 14.9 11.5 80   LegendMM LegendMM LegendMM 100.43     LegendNANA
04:00 14.6 11.5 82   LegendMM LegendMM LegendMM 100.54     LegendNANA
05:00 14.2 11.5 84   LegendMM LegendMM LegendMM 100.60     LegendNANA
06:00 14.2 11.4 83   LegendMM LegendMM LegendMM 100.67     LegendNANA
07:00 14.6 10.5 76   LegendMM LegendMM LegendMM 100.75     LegendNANA
08:00 15.5 9.7 68   LegendMM LegendMM LegendMM 100.79     LegendNANA
09:00 16.3 9.1 62   LegendMM LegendMM LegendMM 100.81     LegendNANA
10:00 17.0 8.8 58   LegendMM LegendMM LegendMM 100.87     LegendNANA
11:00 17.9 9.5 58   LegendMM LegendMM LegendMM 100.93     LegendNANA
12:00 18.0 8.8 55   LegendMM LegendMM LegendMM 100.95     LegendNANA
13:00 20.4 10.8 54   LegendMM LegendMM LegendMM 100.92     LegendNANA
14:00 20.7 10.1 51   LegendMM LegendMM LegendMM 100.93     LegendNANA
15:00 20.8 10.2 51   LegendMM LegendMM LegendMM 100.93     LegendNANA
16:00 19.7 10.5 55   LegendMM LegendMM LegendMM 100.95     LegendNANA
17:00 18.7 10.5 59   LegendMM LegendMM LegendMM 100.94     LegendNANA
18:00 18.8 10.7 59   LegendMM LegendMM LegendMM 100.91     LegendNANA
19:00 19.3 8.2 49   LegendMM LegendMM LegendMM 100.95     LegendNANA
20:00 18.0 9.2 56   LegendMM LegendMM LegendMM 101.04     LegendNANA
21:00 16.8 7.1 53   LegendMM LegendMM LegendMM 101.10     LegendNANA
22:00 15.7 7.5 58   LegendMM LegendMM LegendMM 101.12     LegendNANA
23:00 15.0 7.4 60   LegendMM LegendMM LegendMM 101.15     LegendNANA

Notes on Data Quality.

Legend

  • E = Estimated
  • M = Missing
  • NA = Not Available*
  • [empty] = Indicates an unobserved value
Date modified: